Change the Weather History Date:

Friday, November 29, 2013

  Actual Average (KAQP) Record (KAQP)
Temperature  
Mean Temperature 24 °F -  
Max Temperature 39 °F 31 °F 55 °F (1998)
Min Temperature 8 °F 16 °F 0 °F (2007)
Degree Days  
Heating Degree Days 42    
Moisture  
Dew Point 15 °F    
Average Humidity 67    
Maximum Humidity 85    
Minimum Humidity 45    
Precipitation  
Precipitation 0.00 in - - ()
Sea Level Pressure  
Sea Level Pressure 30.23 in    
Wind  
Wind Speed 8 mph (SSE)    
Max Wind Speed 26 mph    
Max Gust Speed 33 mph    
Visibility 10 miles    
Events      
Averages and records for this station are not official NWS values.
T = Trace of Precipitation, MM = Missing Value Source: NWS Daily Summary

Daily Weather History Graph

Daily Weather History Graph

Search for Another Location

Airport or City:

Trip Planner

Search our weather history database for the weather conditions in past years. The results will help you decide how hot, cold, wet, or windy it might be!

Date:

Astronomy

Nov. 29, 2013 Rise Set
Actual Time 7:40 AM CST 4:45 PM CST
Civil Twilight 7:07 AM CST 5:18 PM CST
Nautical Twilight 6:31 AM CST 5:54 PM CST
Astronomical Twilight 5:55 AM CST 6:30 PM CST
Moon 3:38 AM CST (11/29) 2:38 PM CST (11/29)
Length of Visible Light 10h 10m
Length of Day
9h 04m
Waning Crescent, 14% of the Moon is Illuminated
Nov 29
Waning Crescent
Dec 2
New
Dec 9
First Quarter
Dec 17
Full
Dec 25
Last Quarter

Hourly Weather History & Observations

Time (CST) Temp. Windchill Dew Point Humidity Pressure Visibility Wind Dir Wind Speed Gust Speed Precip Events Conditions
12:13 AM 10.4 °F - 5.0 °F 79% 30.47 in 10.0 mi Calm Calm - N/A   Clear
12:33 AM 8.6 °F 2.0 °F 3.2 °F 79% 30.47 in 10.0 mi South 3.5 mph - N/A   Clear
12:54 AM 10.4 °F - 5.0 °F 79% 30.45 in 10.0 mi Calm Calm - N/A   Clear
1:13 AM 8.6 °F 2.0 °F 3.2 °F 79% 30.45 in 10.0 mi South 3.5 mph - N/A   Clear
1:33 AM 8.6 °F 0.1 °F 3.2 °F 79% 30.45 in 10.0 mi South 4.6 mph - N/A   Clear
1:54 AM 8.6 °F 2.0 °F 3.2 °F 79% 30.44 in 10.0 mi South 3.5 mph - N/A   Clear
2:13 AM 8.6 °F - 3.2 °F 79% 30.44 in 10.0 mi Calm Calm - N/A   Clear
2:33 AM 10.4 °F 4.0 °F 6.8 °F 85% 30.44 in 10.0 mi South 3.5 mph - N/A   Clear
2:54 AM 12.2 °F 6.1 °F 6.8 °F 79% 30.45 in 10.0 mi South 3.5 mph - N/A   Clear
3:11 AM 12.2 °F - 6.8 °F 79% 30.44 in 10.0 mi North - - N/A   Clear
3:34 AM 12.2 °F 6.1 °F 6.8 °F 79% 30.43 in 10.0 mi SSE 3.5 mph - N/A   Clear
3:54 AM 12.2 °F 2.9 °F 6.8 °F 79% 30.42 in 10.0 mi SSE 5.8 mph - N/A   Clear
4:13 AM 10.4 °F 2.2 °F 5.0 °F 79% 30.41 in 10.0 mi SSE 4.6 mph - N/A   Clear
4:34 AM 12.2 °F 2.9 °F 6.8 °F 79% 30.41 in 10.0 mi SE 5.8 mph - N/A   Clear
4:54 AM 10.4 °F 0.8 °F 6.8 °F 85% 30.40 in 10.0 mi SSE 5.8 mph - N/A   Clear
5:13 AM 14.0 °F 2.9 °F 8.6 °F 79% 30.40 in 10.0 mi SSE 8.1 mph - N/A   Clear
5:34 AM 14.0 °F 2.9 °F 8.6 °F 79% 30.40 in 10.0 mi SSE 8.1 mph - N/A   Clear
5:54 AM 14.0 °F 2.0 °F 8.6 °F 79% 30.38 in 10.0 mi SSE 9.2 mph - N/A   Clear
6:13 AM 14.0 °F 2.9 °F 8.6 °F 79% 30.38 in 10.0 mi SSE 8.1 mph - N/A   Clear
6:34 AM 14.0 °F 2.0 °F 8.6 °F 79% 30.38 in 10.0 mi SSE 9.2 mph - N/A   Clear
6:53 AM 15.8 °F 2.7 °F 8.6 °F 73% 30.37 in 10.0 mi SSE 11.5 mph - N/A   Clear
7:14 AM 15.8 °F 3.4 °F 8.6 °F 73% 30.36 in 10.0 mi SE 10.4 mph - N/A   Clear
7:33 AM 15.8 °F 3.4 °F 8.6 °F 73% 30.36 in 10.0 mi SE 10.4 mph - N/A   Clear
7:54 AM 15.8 °F 3.4 °F 8.6 °F 73% 30.35 in 10.0 mi SSE 10.4 mph - N/A   Clear
8:13 AM 15.8 °F 2.7 °F 10.4 °F 79% 30.35 in 10.0 mi SSE 11.5 mph - N/A   Clear
8:33 AM 17.6 °F 4.3 °F 10.4 °F 73% 30.35 in 10.0 mi SSE 12.7 mph - N/A   Clear
8:54 AM 19.4 °F 6.6 °F 12.2 °F 74% 30.34 in 10.0 mi SSE 12.7 mph - N/A   Clear
9:13 AM 21.2 °F 8.9 °F 12.2 °F 68% 30.33 in 10.0 mi SSE 12.7 mph - N/A   Clear
9:33 AM 23.0 °F 10.6 °F 12.2 °F 63% 30.33 in 10.0 mi SSE 13.8 mph - N/A   Clear
9:54 AM 24.8 °F 12.4 °F 14.0 °F 64% 30.32 in 10.0 mi SSE 15.0 mph - N/A   Clear
10:13 AM 26.6 °F 14.7 °F 15.8 °F 64% 30.31 in 10.0 mi SSE 15.0 mph - N/A   Clear
10:33 AM 28.4 °F 16.6 °F 15.8 °F 59% 30.30 in 10.0 mi SSE 16.1 mph 23.0 mph N/A   Clear
10:54 AM 30.2 °F 18.1 °F 15.8 °F 55% 30.28 in 10.0 mi SSE 18.4 mph 24.2 mph N/A   Clear
11:13 AM 30.2 °F 17.8 °F 17.6 °F 60% 30.26 in 10.0 mi SSE 19.6 mph - N/A   Clear
11:34 AM 35.6 °F 24.5 °F 19.4 °F 52% 30.25 in 10.0 mi South 20.7 mph 27.6 mph N/A   Clear
11:54 AM 37.4 °F 27.2 °F 19.4 °F 48% 30.22 in 10.0 mi South 19.6 mph 27.6 mph N/A   Clear
12:13 PM 37.4 °F 26.1 °F 19.4 °F 48% 30.20 in 10.0 mi South 24.2 mph 28.8 mph N/A   Clear
12:34 PM 37.4 °F 25.9 °F 19.4 °F 48% 30.17 in 10.0 mi South 25.3 mph 33.4 mph N/A   Clear
12:54 PM 39.2 °F 28.0 °F 19.4 °F 45% 30.16 in 10.0 mi South 26.5 mph 32.2 mph N/A   Clear
1:13 PM 37.4 °F 26.1 °F 19.4 °F 48% 30.15 in 10.0 mi South 24.2 mph 32.2 mph N/A   Clear
1:34 PM 39.2 °F 28.5 °F 21.2 °F 49% 30.13 in 10.0 mi SSE 24.2 mph 29.9 mph N/A   Clear
1:54 PM 39.2 °F 28.5 °F 21.2 °F 49% 30.13 in 10.0 mi SSE 24.2 mph 28.8 mph N/A   Clear
2:13 PM 39.2 °F 28.7 °F 21.2 °F 49% 30.12 in 10.0 mi South 23.0 mph 29.9 mph N/A   Clear
2:34 PM 39.2 °F 29.3 °F 21.2 °F 49% 30.12 in 10.0 mi South 20.7 mph 26.5 mph N/A   Clear
2:54 PM 37.4 °F 28.2 °F 21.2 °F 52% 30.11 in 10.0 mi South 16.1 mph 23.0 mph N/A   Clear
3:13 PM 39.2 °F 31.2 °F 21.2 °F 49% 30.11 in 10.0 mi South 13.8 mph - N/A   Clear
3:34 PM 39.2 °F 31.2 °F 21.2 °F 49% 30.11 in 10.0 mi South 13.8 mph - N/A   Clear
3:54 PM 39.2 °F 31.6 °F 21.2 °F 49% 30.11 in 10.0 mi South 12.7 mph - N/A   Clear
4:13 PM 37.4 °F 30.3 °F 21.2 °F 52% 30.11 in 10.0 mi South 10.4 mph - N/A   Clear
4:34 PM 37.4 °F 31.4 °F 21.2 °F 52% 30.11 in 10.0 mi South 8.1 mph - N/A   Clear
4:54 PM 33.8 °F 27.7 °F 19.4 °F 56% 30.10 in 10.0 mi South 6.9 mph - N/A   Clear
5:13 PM 33.8 °F 29.6 °F 19.4 °F 56% 30.11 in 10.0 mi SSE 4.6 mph - N/A   Clear
5:34 PM 28.4 °F 20.4 °F 19.4 °F 69% 30.11 in 10.0 mi SSE 8.1 mph - N/A   Clear
5:54 PM 28.4 °F 21.2 °F 17.6 °F 64% 30.10 in 10.0 mi SE 6.9 mph - N/A   Clear
6:13 PM 30.2 °F 21.3 °F 19.4 °F 64% 30.09 in 10.0 mi SSE 10.4 mph - N/A   Clear
6:34 PM 30.2 °F 20.8 °F 19.4 °F 64% 30.07 in 10.0 mi SSE 11.5 mph - N/A   Clear
6:53 PM 32.0 °F 23.6 °F 21.2 °F 64% 30.08 in 10.0 mi SSE 10.4 mph - N/A   Clear
7:14 PM 30.2 °F 21.9 °F 19.4 °F 64% 30.08 in 10.0 mi SSE 9.2 mph - N/A   Clear
7:33 PM 30.2 °F 21.9 °F 19.4 °F 64% 30.07 in 10.0 mi SSE 9.2 mph - N/A   Clear
7:53 PM 30.2 °F 22.6 °F 19.4 °F 64% 30.07 in 10.0 mi SSE 8.1 mph - N/A   Clear
8:14 PM 30.2 °F 21.9 °F 19.4 °F 64% 30.06 in 10.0 mi SSE 9.2 mph - N/A   Clear
8:33 PM 28.4 °F 21.2 °F 19.4 °F 69% 30.07 in 10.0 mi SSE 6.9 mph - N/A   Clear
8:54 PM 28.4 °F 20.4 °F 19.4 °F 69% 30.05 in 10.0 mi SSE 8.1 mph - N/A   Clear
9:13 PM 28.4 °F 19.1 °F 21.2 °F 74% 30.04 in 10.0 mi SSE 10.4 mph - N/A   Clear
9:34 PM 28.4 °F 19.7 °F 21.2 °F 74% 30.05 in 10.0 mi SE 9.2 mph - N/A   Clear
9:53 PM 26.6 °F 17.5 °F 19.4 °F 74% 30.05 in 10.0 mi SE 9.2 mph - N/A   Clear
10:13 PM 26.6 °F 18.2 °F 19.4 °F 74% 30.05 in 10.0 mi SE 8.1 mph - N/A   Clear
10:34 PM 26.6 °F 16.2 °F 19.4 °F 74% 30.02 in 10.0 mi SSE 11.5 mph - N/A   Clear
10:53 PM 26.6 °F 18.2 °F 19.4 °F 74% 30.03 in 10.0 mi SE 8.1 mph - N/A   Clear
11:14 PM 24.8 °F 17.9 °F 19.4 °F 80% 30.03 in 10.0 mi SSE 5.8 mph - N/A   Clear
11:34 PM 24.8 °F 20.5 °F 19.4 °F 80% 30.04 in 10.0 mi SE 3.5 mph - N/A   Clear
11:53 PM 24.8 °F 17.9 °F 19.4 °F 80% 30.03 in 10.0 mi SE 5.8 mph - N/A   Clear